SCP
0 0 0 0 0 0 0 0 0 0 0 0 0 0 0 0 0 0 0 0 0 0 -0 -0 0 0 0 0 0 1 2 2 1 1 1 1 1 1 1 1 1 1 1
0 0 0 0 0 0 0 0 0 0 0 0 0 0 0 0 0 0 0 0 0 0 0 0 0 0 0 0 0 0 2 2 2 1 1 1 1 1 1 1 1 1 1
0 0 0 0 0 0 0 0 0 0 0 0 0 0 0 0 0 0 0 0 0 0 0 0 0 0 0 0 0 0 1 1 2 2 2 1 1 1 1 1 1 2 1
0 0 0 0 0 0 0 0 0 0 0 0 0 0 0 0 -0 0 0 0 0 0 0 0 0 0 0 0 0 0 1 1 1 1 1 1 1 1 1 1 1 1 1
0 0 0 0 0 0 0 0 0 0 0 0 0 0 0 0 -0 0 0 0 0 0 0 0 0 0 0 0 0 0 0 1 1 1 1 1 1 1 1 1 1 1 1
0 0 0 0 0 0 0 0 0 0 0 0 0 0 0 0 0 -0 0 0 0 0 0 0 0 0 0 0 0 0 0 0 1 1 1 1 1 1 1 1 1 1 1
0 0 0 0 0 0 0 0 0 0 0 0 0 0 0 0 0 0 0 0 0 0 0 0 0 0 0 0 0 0 0 0 0 1 1 1 1 1 1 1 1 1 1
0 0 0 0 0 0 0 0 0 0 0 0 0 0 0 0 0 0 0 0 0 0 0 0 0 0 0 0 0 0 0 0 0 1 1 1 1 1 1 1 1 1 1
0 0 0 0 0 0 0 0 0 0 0 0 0 0 0 0 0 0 0 0 0 0 0 0 0 0 0 0 0 0 0 0 0 0 1 1 1 1 1 1 1 1 1
0 0 0 0 0 0 0 0 0 0 0 0 0 0 0 0 0 0 0 0 0 0 0 0 0 0 0 0 0 0 0 0 0 0 0 1 1 1 1 1 1 1 1
0 0 0 0 0 0 0 0 0 0 0 0 0 0 0 0 0 0 0 0 0 0 0 0 0 0 0 0 0 0 0 0 0 0 0 0 0 1 1 1 1 1 1
0 0 0 0 0 0 0 0 0 0 0 0 0 0 0 0 0 0 0 0 0 0 0 0 0 0 0 0 0 0 0 0 0 0 0 0 0 0 1 1 1 1 0
0 0 0 0 0 0 0 0 0 0 0 0 0 0 0 0 0 0 0 0 0 0 0 0 0 0 0 0 0 0 0 0 0 0 0 0 0 0 0 1 1 1 1
0 0 0 0 0 -0 0 0 0 0 0 0 0 0 0 0 0 0 0 0 0 0 0 0 0 0 0 0 0 0 0 0 0 0 0 0 0 0 0 0 0 1 1
0 0 0 0 0 0 0 0 0 0 0 0 0 0 0 0 0 0 0 0 0 0 0 0 0 0 0 0 0 0 0 0 0 0 0 0 0 0 0 0 0 0 0
0 0 0 0 0 0 0 0 0 0 0 0 0 0 0 0 0 0 0 0 0 0 0 0 0 0 0 0 0 0 0 0 0 0 0 0 0 0 0 0 0 0 0
0 0 0 0 0 0 0 0 0 0 0 0 0 0 0 0 -0 0 0 0 0 0 0 0 0 0 0 0 0 0 0 0 0 0 0 0 0 0 0 0 0 0 0
0 0 0 0 0 0 0 0 0 0 0 0 0 0 0 0 -0 0 0 0 0 0 0 0 0 0 0 0 0 0 0 0 0 0 0 0 0 0 0 0 0 0 0
0 0 0 0 0 0 0 0 0 0 0 -0 0 0 0 -0 0 -0 -0 -0 0 0 0 0 0 0 0 0 0 0 0 0 0 0 0 0 0 0 0 0 0 0 0
0 0 0 0 0 0 -0 -0 -0 0 0 0 0 0 0 0 0 -0 0 0 0 0 0 0 0 0 0 0 0 0 0 0 0 0 0 0 0 0 0 0 0 0 0
0 0 0 0 0 0 -0 0 0 0 0 0 0 0 0 0 0 0 0 0 0 0 0 0 -0 -0 -0 -0 0 0 0 0 0 0 0 0 0 0 0 0 0 0 0
0 0 0 0 0 0 0 0 0 0 0 0 0 0 0 -0 0 -0 -0 0 0 0 0 -0 -0 -0 0 0 -0 0 0 0 0 0 0 0 0 0 0 0 0 0 0
0 0 0 0 0 0 0 0 0 0 0 0 0 0 0 0 0 0 -0 0 0 -0 -0 -0 0 0 0 0 0 0 0 0 0 0 0 0 0 0 0 0 0 0 0
0 0 0 0 0 0 0 0 0 0 0 0 0 0 0 0 -0 0 0 -0 -0 0 0 -0 -0 0 0 0 -0 0 0 0 0 0 0 0 0 0 0 0 0 0 0
0 0 0 0 0 0 0 0 0 0 0 0 -0 -0 -0 -0 0 -0 0 0 0 -0 -0 -0 -0 -0 -0 -0 0 -0 0 0 0 0 0 0 0 0 0 0 0 0 0
0 0 0 0 -0 -0 0 0 0 0 0 0 -0 -0 -0 -0 -0 0 0 -0 -0 -0 0 -0 -0 0 -0 0 0 0 0 0 -0 0 0 0 0 0 0 0 0 0 0
Wind_Speed_500mb
21 24 18 27 27 26 31 31 20 28 28 35 36 17 22 27 27 28 36 34 36 38 39 40 35 30 30 40 44 47 48 51 53 51 50 48 48 48 49 48 47 48 49
28 27 28 29 33 29 27 33 38 42 42 33 22 20 24 29 33 32 32 25 28 38 43 35 37 34 28 28 40 41 46 49 51 53 53 52 51 52 51 51 49 50 52
30 23 28 22 14 25 35 37 33 37 31 34 34 32 32 32 32 38 41 36 38 38 32 37 31 37 32 25 31 40 41 46 50 50 53 55 54 53 54 55 54 58 57
26 21 16 19 22 27 40 42 41 47 36 40 40 42 40 39 44 43 47 49 44 38 30 30 33 27 28 25 26 35 44 40 45 50 51 53 55 54 54 57 57 57 57
30 17 20 22 20 29 38 47 44 46 47 44 47 51 50 45 46 41 34 30 35 43 42 41 42 38 32 27 25 25 41 47 40 40 50 54 54 54 55 56 57 56 56
29 28 26 31 39 48 38 43 40 37 39 42 46 53 58 57 56 61 58 49 50 51 48 37 37 36 32 20 24 30 30 43 45 41 37 48 52 54 53 56 57 57 57
31 34 36 35 30 36 44 43 43 44 43 43 48 50 53 58 62 61 50 54 49 50 35 36 44 38 40 41 32 36 27 30 40 43 43 41 42 50 52 54 55 57 57
37 41 39 38 30 40 30 32 36 39 45 43 49 47 50 57 50 44 40 42 52 53 35 31 28 29 32 28 34 32 30 25 31 36 44 44 44 42 48 52 52 56 57
42 33 34 37 37 39 39 39 39 42 51 47 50 44 31 15 32 33 25 11 19 37 37 40 44 39 38 31 25 28 33 32 31 28 40 44 43 42 43 46 53 54 56
26 33 37 38 49 48 48 43 38 47 52 64 51 47 47 47 50 46 52 41 32 36 40 38 46 44 39 39 36 32 29 39 45 39 39 41 44 46 45 45 46 49 56
37 38 45 60 45 49 44 43 49 49 55 59 53 47 48 47 41 48 55 61 47 39 36 35 44 41 40 36 32 36 36 30 29 35 40 36 43 46 45 49 48 46 48
49 43 27 19 22 32 42 46 47 53 57 60 53 45 47 51 50 46 48 54 54 50 43 39 40 40 35 42 44 37 36 35 41 30 31 43 44 46 47 47 48 51 47
43 45 47 48 46 46 51 56 59 61 61 52 45 45 47 45 48 52 52 56 55 47 44 42 47 33 36 39 45 46 44 42 38 40 33 32 41 49 49 48 49 48 50
33 43 59 65 73 76 75 65 56 53 49 44 40 43 46 47 44 44 47 47 51 43 44 46 47 40 37 44 45 44 47 41 41 43 41 41 35 41 53 53 47 46 47
56 60 63 67 53 47 44 46 47 40 38 42 42 45 45 43 42 40 39 41 39 38 42 34 26 21 26 37 36 40 42 41 38 42 43 40 38 34 40 55 56 48 43
63 60 58 59 55 51 46 43 41 48 46 43 39 45 48 48 42 37 36 36 42 40 43 39 27 23 30 26 35 39 33 35 38 42 42 42 39 36 37 45 60 54 44
62 55 54 53 54 54 51 48 48 49 41 39 43 51 45 40 35 35 31 27 32 38 41 37 29 29 25 27 29 31 30 30 37 46 52 51 47 40 36 42 56 53 47
67 64 59 55 53 44 40 37 31 41 42 46 50 46 40 38 31 30 32 31 30 29 33 37 37 31 34 38 44 48 52 52 41 37 40 45 44 36 31 40 49 50 45
64 63 61 56 45 43 36 38 35 47 49 55 48 40 34 29 24 28 28 29 27 28 33 38 36 35 33 34 35 40 41 42 49 52 48 38 36 33 32 39 47 46 43
63 60 50 45 37 29 38 35 39 37 41 35 31 27 19 20 19 18 25 27 26 29 30 34 35 36 36 31 31 37 37 29 26 25 33 37 37 34 36 40 40 39 38
54 52 47 39 29 31 31 31 36 41 31 24 20 13 9 9 10 11 21 20 21 25 33 37 42 45 40 32 27 20 20 17 21 24 25 29 35 38 38 34 31 30 31
56 54 43 34 32 29 21 22 18 24 15 8 14 2 8 7 8 6 10 18 25 33 41 40 35 30 28 25 17 16 18 23 26 22 26 30 34 39 37 32 29 28 28
50 51 42 40 29 26 20 30 27 20 10 3 5 8 8 4 4 3 11 23 30 25 17 11 8 14 12 13 18 19 19 26 25 33 32 36 39 40 34 29 21 19 17
51 45 37 36 33 38 43 34 17 11 5 5 6 9 7 7 3 7 17 15 2 7 8 2 1 1 5 11 20 25 27 22 28 41 42 47 36 44 40 39 31 32 32
51 44 35 33 35 38 43 32 14 11 9 8 11 14 9 6 6 11 9 5 11 10 6 12 10 9 23 17 22 32 28 23 43 47 50 53 46 53 49 46 40 33 29
43 43 44 39 42 41 42 21 13 15 14 23 25 21 13 16 14 11 7 16 23 26 28 29 29 29 30 23 18 18 30 44 50 45 47 45 65 59 40 37 35 35 27
Wind_Direction_500mb
284 281 275 279 295 285 301 283 267 276 280 298 299 281 285 278 293 291 259 270 280 284 292 296 307 305 291 258 250 244 241 239 235 235 233 229 228 226 225 221 220 219 215
284 281 293 276 279 279 291 287 279 278 285 296 311 297 285 283 291 300 300 292 294 293 282 286 294 295 301 277 254 251 244 240 237 234 233 231 231 227 227 226 220 220 221
281 286 291 312 303 295 292 298 282 294 289 283 288 280 288 287 282 286 288 279 289 298 283 278 285 282 279 295 261 250 250 243 238 234 233 233 232 231 227 228 225 225 228
271 290 269 302 304 302 290 291 293 289 280 276 276 271 271 271 273 278 279 276 282 284 281 275 277 280 270 277 294 257 250 249 242 238 234 233 233 232 232 230 228 227 228
263 262 278 277 284 285 308 300 287 292 281 279 269 271 267 263 276 270 265 268 273 281 280 274 275 267 268 262 283 275 250 249 247 241 238 236 235 233 232 232 230 228 227
247 268 270 274 292 283 274 284 295 298 301 296 295 284 275 265 268 271 265 263 262 268 273 268 275 259 258 257 270 273 260 246 245 244 241 237 236 236 234 231 230 231 229
271 273 289 288 297 284 288 296 306 288 295 309 306 298 291 280 272 271 266 262 250 258 264 260 252 252 253 274 271 255 254 244 246 247 243 243 237 234 234 233 230 230 231
282 284 288 288 282 306 289 284 312 305 303 298 304 304 302 303 295 279 272 267 256 249 246 250 238 238 256 272 262 257 233 252 249 244 247 240 239 236 234 234 233 231 233
272 284 275 273 285 290 281 290 301 308 312 310 299 294 295 288 306 301 237 232 242 243 239 248 257 257 267 259 264 268 255 240 241 248 245 245 240 238 237 233 232 232 231
289 282 276 285 288 287 276 280 291 306 305 316 306 288 286 284 282 293 268 272 263 252 242 250 256 263 257 262 263 276 270 265 256 255 247 243 243 239 237 237 233 232 232
289 297 285 292 287 281 275 281 299 304 305 309 307 292 290 287 284 271 277 278 263 262 257 244 256 255 250 249 256 264 268 277 272 263 256 250 244 243 237 237 236 232 231
288 291 311 306 289 284 285 287 296 302 304 300 299 287 284 285 289 281 273 277 280 273 257 256 256 260 255 252 252 261 256 264 259 273 267 260 251 243 238 235 234 233 231
302 302 300 298 302 296 296 299 301 301 298 294 292 290 283 281 284 284 278 272 267 268 272 268 258 253 254 253 255 254 255 256 257 260 274 272 252 245 243 236 234 231 229
316 307 304 301 295 297 293 292 293 295 289 291 294 294 290 283 288 281 273 271 264 265 272 274 263 259 252 252 252 255 246 255 254 260 264 271 262 246 238 238 233 230 228
314 309 303 301 305 304 304 299 296 298 293 290 292 294 288 288 290 277 268 258 252 261 275 279 265 259 258 261 260 256 261 254 253 254 259 260 261 257 248 234 231 226 226
322 311 310 307 306 306 307 304 302 305 297 295 295 296 291 289 279 270 262 255 249 253 265 271 271 258 261 264 258 266 261 245 250 253 251 254 262 263 254 240 225 224 222
329 322 313 305 299 300 298 297 295 296 298 296 299 301 289 283 273 262 251 248 246 249 252 268 270 267 276 267 262 268 253 266 267 260 257 258 262 262 251 236 219 219 218
330 323 322 317 311 302 300 305 300 298 301 299 299 296 287 277 262 249 244 245 254 248 253 267 274 272 272 270 274 276 274 277 266 256 252 253 247 244 244 220 210 211 216
328 328 325 323 310 301 301 306 305 302 294 292 297 294 281 264 258 245 244 244 255 251 255 262 270 277 274 272 267 270 266 263 266 258 248 243 229 231 221 206 202 208 215
338 330 327 328 325 311 299 305 299 297 299 297 301 290 277 266 261 248 232 240 252 255 252 258 267 272 276 268 273 273 261 256 251 232 227 224 216 208 197 196 200 210 221
350 344 341 340 337 330 311 303 308 305 304 308 311 287 260 229 221 236 234 240 240 248 263 269 273 273 267 262 267 270 237 227 214 205 193 193 189 186 183 186 201 216 229
1 357 350 348 346 337 327 311 322 329 319 324 337 43 157 161 197 240 252 255 268 274 281 277 277 260 254 256 245 238 211 185 159 168 161 167 178 171 174 185 197 208 219
8 6 360 353 4 1 339 333 321 323 344 0 316 220 197 188 229 213 278 284 286 282 276 258 251 265 254 232 202 196 191 188 184 170 174 165 169 156 154 150 160 169 164
0 356 0 350 350 348 342 336 351 349 64 55 167 196 195 241 181 301 309 315 299 147 149 175 185 105 271 208 194 181 163 165 178 168 162 137 157 142 140 130 127 127 126
357 2 4 359 352 351 348 337 339 110 95 85 113 121 108 80 264 275 310 126 101 101 107 91 87 124 104 125 160 160 162 150 135 146 158 149 149 145 148 137 132 127 122
356 352 355 356 357 352 345 340 120 113 111 105 111 104 41 107 86 88 121 110 99 89 86 101 98 104 106 113 144 189 173 162 157 153 166 159 160 152 137 144 137 142 135
Wind_Speed_850mb
21 24 18 27 27 26 31 31 20 28 28 35 36 17 22 27 27 28 36 34 36 38 39 40 35 30 30 40 44 47 48 51 53 51 50 48 48 48 49 48 47 48 49
28 27 28 29 33 29 27 33 38 42 42 33 22 20 24 29 33 32 32 25 28 38 43 35 37 34 28 28 40 41 46 49 51 53 53 52 51 52 51 51 49 50 52
30 23 28 22 14 25 35 37 33 37 31 34 34 32 32 32 32 38 41 36 38 38 32 37 31 37 32 25 31 40 41 46 50 50 53 55 54 53 54 55 54 58 57
26 21 16 19 22 27 40 42 41 47 36 40 40 42 40 39 44 43 47 49 44 38 30 30 33 27 28 25 26 35 44 40 45 50 51 53 55 54 54 57 57 57 57
30 17 20 22 20 29 38 47 44 46 47 44 47 51 50 45 46 41 34 30 35 43 42 41 42 38 32 27 25 25 41 47 40 40 50 54 54 54 55 56 57 56 56
29 28 26 31 39 48 38 43 40 37 39 42 46 53 58 57 56 61 58 49 50 51 48 37 37 36 32 20 24 30 30 43 45 41 37 48 52 54 53 56 57 57 57
31 34 36 35 30 36 44 43 43 44 43 43 48 50 53 58 62 61 50 54 49 50 35 36 44 38 40 41 32 36 27 30 40 43 43 41 42 50 52 54 55 57 57
37 41 39 38 30 40 30 32 36 39 45 43 49 47 50 57 50 44 40 42 52 53 35 31 28 29 32 28 34 32 30 25 31 36 44 44 44 42 48 52 52 56 57
42 33 34 37 37 39 39 39 39 42 51 47 50 44 31 15 32 33 25 11 19 37 37 40 44 39 38 31 25 28 33 32 31 28 40 44 43 42 43 46 53 54 56
26 33 37 38 49 48 48 43 38 47 52 64 51 47 47 47 50 46 52 41 32 36 40 38 46 44 39 39 36 32 29 39 45 39 39 41 44 46 45 45 46 49 56
37 38 45 60 45 49 44 43 49 49 55 59 53 47 48 47 41 48 55 61 47 39 36 35 44 41 40 36 32 36 36 30 29 35 40 36 43 46 45 49 48 46 48
49 43 27 19 22 32 42 46 47 53 57 60 53 45 47 51 50 46 48 54 54 50 43 39 40 40 35 42 44 37 36 35 41 30 31 43 44 46 47 47 48 51 47
43 45 47 48 46 46 51 56 59 61 61 52 45 45 47 45 48 52 52 56 55 47 44 42 47 33 36 39 45 46 44 42 38 40 33 32 41 49 49 48 49 48 50
33 43 59 65 73 76 75 65 56 53 49 44 40 43 46 47 44 44 47 47 51 43 44 46 47 40 37 44 45 44 47 41 41 43 41 41 35 41 53 53 47 46 47
56 60 63 67 53 47 44 46 47 40 38 42 42 45 45 43 42 40 39 41 39 38 42 34 26 21 26 37 36 40 42 41 38 42 43 40 38 34 40 55 56 48 43
63 60 58 59 55 51 46 43 41 48 46 43 39 45 48 48 42 37 36 36 42 40 43 39 27 23 30 26 35 39 33 35 38 42 42 42 39 36 37 45 60 54 44
62 55 54 53 54 54 51 48 48 49 41 39 43 51 45 40 35 35 31 27 32 38 41 37 29 29 25 27 29 31 30 30 37 46 52 51 47 40 36 42 56 53 47
67 64 59 55 53 44 40 37 31 41 42 46 50 46 40 38 31 30 32 31 30 29 33 37 37 31 34 38 44 48 52 52 41 37 40 45 44 36 31 40 49 50 45
64 63 61 56 45 43 36 38 35 47 49 55 48 40 34 29 24 28 28 29 27 28 33 38 36 35 33 34 35 40 41 42 49 52 48 38 36 33 32 39 47 46 43
63 60 50 45 37 29 38 35 39 37 41 35 31 27 19 20 19 18 25 27 26 29 30 34 35 36 36 31 31 37 37 29 26 25 33 37 37 34 36 40 40 39 38
54 52 47 39 29 31 31 31 36 41 31 24 20 13 9 9 10 11 21 20 21 25 33 37 42 45 40 32 27 20 20 17 21 24 25 29 35 38 38 34 31 30 31
56 54 43 34 32 29 21 22 18 24 15 8 14 2 8 7 8 6 10 18 25 33 41 40 35 30 28 25 17 16 18 23 26 22 26 30 34 39 37 32 29 28 28
50 51 42 40 29 26 20 30 27 20 10 3 5 8 8 4 4 3 11 23 30 25 17 11 8 14 12 13 18 19 19 26 25 33 32 36 39 40 34 29 21 19 17
51 45 37 36 33 38 43 34 17 11 5 5 6 9 7 7 3 7 17 15 2 7 8 2 1 1 5 11 20 25 27 22 28 41 42 47 36 44 40 39 31 32 32
51 44 35 33 35 38 43 32 14 11 9 8 11 14 9 6 6 11 9 5 11 10 6 12 10 9 23 17 22 32 28 23 43 47 50 53 46 53 49 46 40 33 29
43 43 44 39 42 41 42 21 13 15 14 23 25 21 13 16 14 11 7 16 23 26 28 29 29 29 30 23 18 18 30 44 50 45 47 45 65 59 40 37 35 35 27
Wind_Direction_850mb
284 281 275 279 295 285 301 283 267 276 280 298 299 281 285 278 293 291 259 270 280 284 292 296 307 305 291 258 250 244 241 239 235 235 233 229 228 226 225 221 220 219 215
284 281 293 276 279 279 291 287 279 278 285 296 311 297 285 283 291 300 300 292 294 293 282 286 294 295 301 277 254 251 244 240 237 234 233 231 231 227 227 226 220 220 221
281 286 291 312 303 295 292 298 282 294 289 283 288 280 288 287 282 286 288 279 289 298 283 278 285 282 279 295 261 250 250 243 238 234 233 233 232 231 227 228 225 225 228
271 290 269 302 304 302 290 291 293 289 280 276 276 271 271 271 273 278 279 276 282 284 281 275 277 280 270 277 294 257 250 249 242 238 234 233 233 232 232 230 228 227 228
263 262 278 277 284 285 308 300 287 292 281 279 269 271 267 263 276 270 265 268 273 281 280 274 275 267 268 262 283 275 250 249 247 241 238 236 235 233 232 232 230 228 227
247 268 270 274 292 283 274 284 295 298 301 296 295 284 275 265 268 271 265 263 262 268 273 268 275 259 258 257 270 273 260 246 245 244 241 237 236 236 234 231 230 231 229
271 273 289 288 297 284 288 296 306 288 295 309 306 298 291 280 272 271 266 262 250 258 264 260 252 252 253 274 271 255 254 244 246 247 243 243 237 234 234 233 230 230 231
282 284 288 288 282 306 289 284 312 305 303 298 304 304 302 303 295 279 272 267 256 249 246 250 238 238 256 272 262 257 233 252 249 244 247 240 239 236 234 234 233 231 233
272 284 275 273 285 290 281 290 301 308 312 310 299 294 295 288 306 301 237 232 242 243 239 248 257 257 267 259 264 268 255 240 241 248 245 245 240 238 237 233 232 232 231
289 282 276 285 288 287 276 280 291 306 305 316 306 288 286 284 282 293 268 272 263 252 242 250 256 263 257 262 263 276 270 265 256 255 247 243 243 239 237 237 233 232 232
289 297 285 292 287 281 275 281 299 304 305 309 307 292 290 287 284 271 277 278 263 262 257 244 256 255 250 249 256 264 268 277 272 263 256 250 244 243 237 237 236 232 231
288 291 311 306 289 284 285 287 296 302 304 300 299 287 284 285 289 281 273 277 280 273 257 256 256 260 255 252 252 261 256 264 259 273 267 260 251 243 238 235 234 233 231
302 302 300 298 302 296 296 299 301 301 298 294 292 290 283 281 284 284 278 272 267 268 272 268 258 253 254 253 255 254 255 256 257 260 274 272 252 245 243 236 234 231 229
316 307 304 301 295 297 293 292 293 295 289 291 294 294 290 283 288 281 273 271 264 265 272 274 263 259 252 252 252 255 246 255 254 260 264 271 262 246 238 238 233 230 228
314 309 303 301 305 304 304 299 296 298 293 290 292 294 288 288 290 277 268 258 252 261 275 279 265 259 258 261 260 256 261 254 253 254 259 260 261 257 248 234 231 226 226
322 311 310 307 306 306 307 304 302 305 297 295 295 296 291 289 279 270 262 255 249 253 265 271 271 258 261 264 258 266 261 245 250 253 251 254 262 263 254 240 225 224 222
329 322 313 305 299 300 298 297 295 296 298 296 299 301 289 283 273 262 251 248 246 249 252 268 270 267 276 267 262 268 253 266 267 260 257 258 262 262 251 236 219 219 218
330 323 322 317 311 302 300 305 300 298 301 299 299 296 287 277 262 249 244 245 254 248 253 267 274 272 272 270 274 276 274 277 266 256 252 253 247 244 244 220 210 211 216
328 328 325 323 310 301 301 306 305 302 294 292 297 294 281 264 258 245 244 244 255 251 255 262 270 277 274 272 267 270 266 263 266 258 248 243 229 231 221 206 202 208 215
338 330 327 328 325 311 299 305 299 297 299 297 301 290 277 266 261 248 232 240 252 255 252 258 267 272 276 268 273 273 261 256 251 232 227 224 216 208 197 196 200 210 221
350 344 341 340 337 330 311 303 308 305 304 308 311 287 260 229 221 236 234 240 240 248 263 269 273 273 267 262 267 270 237 227 214 205 193 193 189 186 183 186 201 216 229
1 357 350 348 346 337 327 311 322 329 319 324 337 43 157 161 197 240 252 255 268 274 281 277 277 260 254 256 245 238 211 185 159 168 161 167 178 171 174 185 197 208 219
8 6 360 353 4 1 339 333 321 323 344 0 316 220 197 188 229 213 278 284 286 282 276 258 251 265 254 232 202 196 191 188 184 170 174 165 169 156 154 150 160 169 164
0 356 0 350 350 348 342 336 351 349 64 55 167 196 195 241 181 301 309 315 299 147 149 175 185 105 271 208 194 181 163 165 178 168 162 137 157 142 140 130 127 127 126
357 2 4 359 352 351 348 337 339 110 95 85 113 121 108 80 264 275 310 126 101 101 107 91 87 124 104 125 160 160 162 150 135 146 158 149 149 145 148 137 132 127 122
356 352 355 356 357 352 345 340 120 113 111 105 111 104 41 107 86 88 121 110 99 89 86 101 98 104 106 113 144 189 173 162 157 153 166 159 160 152 137 144 137 142 135